This demonstration page uses our WeatherBlox Daily Observations layout. Learn more.

Left ArrowRight Arrow

39.51506, -84.39828

Hourly Observations for June 2, 2016

Temp ( °F °C ) Dew Point ( °F °C ) Humidity (%) Winds ( mph kmh ) Pressure ( in mb ) Visibility ( mi km ) Precip ( " mm )
12:35 am 00:35 Clear 69 20.8 64 17.8 83 83 N N/A 29.97 1015 N/A N/A
12:55 am 00:55 Clear 69 20.8 64 17.8 83 83 N N/A 29.97 1015 7 11 N/A
1:35 am 01:35 Hazy 69 20.8 64 17.8 83 83 N N/A 29.97 1015 5 8 N/A
1:55 am 01:55 Hazy 69 20.8 64 17.8 83 83 N N/A 29.97 1015 3 5 N/A
2:15 am 02:15 Hazy 69 20.6 64 17.7 84 84 N N/A 29.97 1015 2 3 N/A
2:35 am 02:35 Hazy 67 19.6 62 16.6 83 83 NNW 3 6 29.97 1015 4 6 N/A
2:55 am 02:55 Mostly Cloudy with Haze 67 19.5 62 16.5 83 83 N N/A 29.97 1015 2 2 N/A
3:15 am 03:15 Hazy 67 19.5 62 16.5 83 83 N N/A 29.97 1015 5 8 N/A
3:35 am 03:35 Hazy 69 20.7 64 17.9 84 84 N N/A 29.97 1015 5 8 N/A
3:55 am 03:55 Hazy 69 20.8 64 18 84 84 N N/A 29.97 1015 5 8 N/A
4:15 am 04:15 Hazy 67 19.5 62 16.5 83 83 N N/A 29.97 1015 3 5 N/A
4:35 am 04:35 Hazy 67 19.3 61 16.3 83 83 WSW 3 6 29.97 1015 2 3 N/A
4:55 am 04:55 Hazy 66 18.8 61 16 84 84 N N/A 29.97 1015 2 3 N/A
5:15 am 05:15 Mostly Cloudy with Haze 66 19.1 61 16.2 83 83 N N/A 29.97 1015 2 2 N/A
5:35 am 05:35 Mostly Cloudy with Haze 67 19.3 62 16.4 83 83 SSW 3 6 29.97 1015 2 3 N/A
5:55 am 05:55 Hazy 67 19.5 62 16.6 83 83 SW 3 6 30.00 1016 2 3 N/A
6:15 am 06:15 Hazy 67 19.5 62 16.6 83 83 NNW 3 6 30.00 1016 3 5 N/A
6:35 am 06:35 Mostly Cloudy with Haze 67 19.5 62 16.7 84 84 NNW 3 6 30.00 1016 2 3 N/A
6:55 am 06:55 Mostly Cloudy with Haze 67 19.5 62 16.7 84 84 N N/A 30.00 1016 2 2 N/A
7:15 am 07:15 Hazy 68 19.8 63 17 84 84 N N/A 30.00 1016 2 3 N/A
7:35 am 07:35 Hazy 69 20.8 65 18.1 85 85 N N/A 30.00 1016 2 3 N/A
7:55 am 07:55 Hazy 69 20.8 64 18 84 84 N N/A 30.00 1016 3 5 N/A
8:15 am 08:15 Hazy 69 20.8 64 17.8 83 83 SSW 3 6 30.00 1016 4 6 N/A
8:35 am 08:35 Hazy 71 21.6 65 18.2 81 81 N N/A 30.00 1016 5 8 N/A
8:55 am 08:55 Sunny with Rain 74 23.5 67 19.5 78 78 N N/A 30.00 1016 5 8 N/A
9:15 am 09:15 Sunny 74 23.6 67 19.3 77 77 N N/A 30.03 1017 7 11 N/A
9:35 am 09:35 Sunny 74 23.6 66 18.9 75 75 N N/A 30.03 1017 7 11 N/A
9:55 am 09:55 Sunny 74 23.6 65 18.5 73 73 N N/A 30.03 1017 10 16 N/A
10:15 am 10:15 Sunny 77 25.1 66 19.1 69 69 N N/A 30.03 1017 10 16 N/A
10:35 am 10:35 Sunny 77 25.1 64 17.8 64 64 N 5 7 30.03 1017 10 16 N/A
10:55 am 10:55 Partly Cloudy 77 25.1 64 17.7 64 64 NNW 3 6 30.03 1017 10 16 N/A
11:15 am 11:15 Mostly Cloudy 78 25.6 64 18 63 63 NW 3 6 30.03 1017 10 16 N/A
11:35 am 11:35 Mostly Cloudy 80 26.5 65 18.3 61 61 NNW 6 9 30.03 1017 10 16 N/A
11:55 am 11:55 Sunny 80 26.5 64 17.8 59 59 NW 5 7 30.03 1017 10 16 N/A
12:15 pm 12:15 Partly Cloudy 80 26.5 63 17 56 56 N N/A 30.03 1017 10 16 N/A
12:35 pm 12:35 Partly Cloudy 80 26.5 62 16.8 55 55 N N/A 30.03 1017 10 16 N/A
12:55 pm 12:55 Mostly Cloudy 80 26.5 61 16.1 53 53 N N/A 30.03 1017 10 16 N/A
1:15 pm 13:15 Cloudy 80 26.5 65 18.2 60 60 NW 3 6 30.03 1017 10 16 N/A
1:35 pm 13:35 Mostly Cloudy 80 26.5 63 17.2 57 57 NNE 3 6 30.03 1017 10 16 N/A
1:55 pm 13:55 Mostly Cloudy 80 26.5 64 17.7 59 59 N N/A 30.03 1017 10 16 N/A
2:15 pm 14:15 Cloudy 79 26.1 65 18.1 61 61 S 9 15 30.03 1017 10 16 N/A
2:35 pm 14:35 Cloudy with Light Rain 75 23.7 65 18.4 72 72 S 5 7 30.03 1017 7 11 N/A
2:55 pm 14:55 Mostly Cloudy 74 23.6 66 18.8 75 75 SW 3 6 30.03 1017 10 16 N/A
3:15 pm 15:15 Mostly Cloudy 74 23.6 66 18.9 75 75 SSW 7 11 30.00 1016 10 16 N/A
3:35 pm 15:35 Cloudy 74 23.6 65 18.6 74 74 SSW 7 11 30.00 1016 10 16 N/A
3:55 pm 15:55 Cloudy with Light Rain 74 23.6 65 18.6 74 74 S 5 7 30.00 1016 10 16 N/A
4:15 pm 16:15 Mostly Cloudy 74 23.6 64 18 71 71 SW 5 7 30.00 1016 10 16 N/A
4:35 pm 16:35 Partly Cloudy 74 23.6 64 17.8 70 70 SW 5 7 30.00 1016 10 16 N/A
4:55 pm 16:55 Partly Cloudy 74 23.6 65 18.2 72 72 SSW 3 6 30.00 1016 10 16 N/A
5:15 pm 17:15 Partly Cloudy 74 23.6 66 18.7 74 74 SW 3 6 30.00 1016 10 16 N/A
5:35 pm 17:35 Sunny with Light Rain 74 23.6 66 18.7 74 74 N N/A 29.97 1015 10 16 N/A
5:55 pm 17:55 Sunny with Drizzle 74 23.6 66 19 75 75 N N/A 30.00 1016 10 16 N/A
6:15 pm 18:15 Sunny 74 23.6 66 19 75 75 SW 5 7 30.00 1016 10 16 N/A
6:35 pm 18:35 Sunny 74 23.6 65 18.5 73 73 SSW 6 9 29.97 1015 10 16 N/A
6:55 pm 18:55 Sunny 74 23.6 66 18.7 74 74 SSW 6 9 29.97 1015 10 16 N/A
7:15 pm 19:15 Partly Cloudy 74 23.6 66 18.7 74 74 S 6 9 29.97 1015 10 16 N/A
7:35 pm 19:35 Sunny 74 23.6 66 19 75 75 SW 5 7 29.97 1015 10 16 N/A
7:55 pm 19:55 Sunny 74 23.6 67 19.5 78 78 SSW 5 7 29.97 1015 10 16 N/A
8:15 pm 20:15 Sunny 74 23.6 67 19.5 78 78 SW 5 7 30.00 1016 10 16 N/A
8:35 pm 20:35 Sunny 74 23.6 67 19.5 78 78 S 5 7 30.00 1016 10 16 N/A
8:55 pm 20:55 Sunny 74 23.6 67 19.6 78 78 S 6 9 30.00 1016 10 16 N/A
9:15 pm 21:15 Clear 72 22.3 65 18.6 80 80 SSW 6 9 30.00 1016 10 16 N/A
9:35 pm 21:35 Clear 71 21.6 65 18.1 81 81 SSW 5 7 30.03 1017 10 16 N/A
9:55 pm 21:55 Clear 71 21.8 65 18.3 81 81 SSW 3 6 30.00 1016 10 16 N/A
10:15 pm 22:15 Clear 69 20.8 64 17.5 82 82 SSW 3 6 30.00 1016 7 11 N/A
10:35 pm 22:35 Clear 69 20.8 64 17.5 82 82 N N/A 30.03 1017 7 11 N/A
10:55 pm 22:55 Clear 69 20.8 64 17.5 82 82 SSW 3 6 30.03 1017 7 11 N/A
11:15 pm 23:15 Clear 69 20.8 64 17.7 83 83 SW 3 6 30.03 1017 7 11 N/A
11:35 pm 23:35 Clear 69 20.8 64 17.7 83 83 S 3 6 30.03 1017 7 11 N/A
11:55 pm 23:55 Hazy 69 20.8 64 17.7 83 83 SW 3 6 30.03 1017 5 8 N/A

Powered by AerisWeather